This is the latest recevied weather packets stored in our database for station/object IW0HP-13. If no packets are shown the sender has not sent any weather packets the latest 10 day(s).
| Time | Temp. | Humidity | Pressure | Rain* | Wind** | Luminosity | Snow |
|---|---|---|---|---|---|---|---|
| 1777272958 | 17.22° C | 57% | 1020.7 hPa | - | - | - | - |
| 1777271758 | 17.22° C | 56% | 1020.7 hPa | - | - | - | - |
| 1777270558 | 16.67° C | 57% | 1020.7 hPa | - | - | - | - |
| 1777269358 | 16.67° C | 58% | 1020.5 hPa | - | - | - | - |
| 1777268158 | 16.11° C | 58% | 1020.5 hPa | - | - | - | - |
| 1777266957 | 16.11° C | 55% | 1020.3 hPa | - | - | - | - |
| 1777265757 | 16.11° C | 56% | 1020.1 hPa | - | - | - | - |
| 1777264557 | 16.11° C | 54% | 1020 hPa | - | - | - | - |
| 1777263356 | 15.56° C | 54% | 1020 hPa | - | - | - | - |
| 1777262156 | 15.56° C | 54% | 1019.8 hPa | - | - | - | - |
| 1777260956 | 15.56° C | 53% | 1019.7 hPa | - | - | - | - |
| 1777259756 | 15.56° C | 53% | 1019.8 hPa | - | - | - | - |
| 1777258555 | 15.56° C | 53% | 1019.8 hPa | - | - | - | - |
| 1777257355 | 15.56° C | 53% | 1019.8 hPa | - | - | - | - |
| 1777256155 | 15.56° C | 53% | 1019.7 hPa | - | - | - | - |
| 1777254955 | 15.56° C | 53% | 1019.8 hPa | - | - | - | - |
| 1777253754 | 15.56° C | 55% | 1019.7 hPa | - | - | - | - |
| 1777252554 | 16.11° C | 54% | 1019.8 hPa | - | - | - | - |
| 1777251354 | 16.11° C | 54% | 1019.8 hPa | - | - | - | - |
| 1777250154 | 16.67° C | 54% | 1019.8 hPa | - | - | - | - |
| 1777248953 | 16.67° C | 57% | 1020 hPa | - | - | - | - |
| 1777247753 | 17.22° C | 60% | 1020 hPa | - | - | - | - |
| 1777246553 | 17.22° C | 62% | 1020.2 hPa | - | - | - | - |
| 1777245353 | 17.78° C | 62% | 1020.1 hPa | - | - | - | - |
| 1777244152 | 17.78° C | 61% | 1020.1 hPa | - | - | - | - |
* Rain since midnight (hover to see other rain measurements)
** Current wind speed in m/s (hover to see current wind gust speed)